This is the latest recevied weather packets stored in our database for station/object W6MAF. If no packets are shown the sender has not sent any weather packets the latest 10 day(s).
| Time | Temp. | Humidity | Pressure | Rain* | Wind** | Luminosity | Snow |
|---|---|---|---|---|---|---|---|
| 1787996818 | 22.22° C | 38% | - | 0 mm | 3.58 m/s, 226° | - | - |
| 1787996574 | 22.22° C | 38% | - | 0 mm | 3.13 m/s, 239° | - | - |
| 1787996520 | 22.22° C | 38% | - | 0 mm | 3.13 m/s, 239° | - | - |
| 1787996222 | 22.22° C | 37% | - | 0 mm | 2.68 m/s, 193° | - | - |
| 1787995627 | 22.22° C | 36% | - | 0 mm | 3.13 m/s, 225° | - | - |
| 1787995329 | 21.67° C | 36% | - | 0 mm | 3.13 m/s, 218° | - | - |
| 1787995028 | 21.67° C | 36% | - | 0 mm | 3.58 m/s, 219° | - | - |
| 1787994765 | 21.67° C | 36% | - | 0 mm | 3.13 m/s, 226° | - | - |
| 1787994730 | 21.67° C | 36% | - | 0 mm | 3.13 m/s, 226° | - | - |
| 1787994433 | 21.67° C | 36% | - | 0 mm | 2.24 m/s, 225° | - | - |
| 1787994135 | 21.67° C | 36% | - | 0 mm | 2.68 m/s, 238° | - | - |
| 1787993946 | 21.67° C | 35% | - | 0 mm | 2.24 m/s, 232° | - | - |
| 1787993946 | 22.22° C | 35% | - | 0 mm | 3.13 m/s, 221° | - | - |
| 1787993946 | 21.67° C | 36% | - | 0 mm | 2.68 m/s, 229° | - | - |
| 1787993946 | 21.67° C | 35% | - | 0 mm | 2.24 m/s, 217° | - | - |
| 1787993946 | 21.67° C | 35% | - | 0 mm | 2.24 m/s, 197° | - | - |
| 1787993946 | 21.67° C | 35% | - | 0 mm | 2.68 m/s, 221° | - | - |
| 1787993837 | 21.67° C | 36% | - | 0 mm | 1.79 m/s, 248° | - | - |
| 1787993540 | 21.67° C | 36% | - | 0 mm | 2.24 m/s, 246° | - | - |
| 1787993239 | 21.67° C | 36% | - | 0 mm | 2.68 m/s, 229° | - | - |
| 1787992941 | 22.22° C | 35% | - | 0 mm | 3.13 m/s, 221° | - | - |
| 1787992643 | 22.22° C | 35% | - | 0 mm | 2.68 m/s, 235° | - | - |
| 1787992345 | 22.22° C | 35% | - | 0 mm | 3.13 m/s, 232° | - | - |
| 1787992048 | 21.67° C | 35% | - | 0 mm | 2.24 m/s, 217° | - | - |
| 1787991750 | 21.67° C | 35% | - | 0 mm | 2.68 m/s, 222° | - | - |
* Rain latest hour (hover to see other rain measurements)
** Current wind speed in m/s (hover to see current wind gust speed)